Waarnemingen

Advertentie
Mijn weer
South Uist Range, Groot Brittannië (3023): temperatuur & dauwpunt: 09.12.2017 18:00:00 - 15.12.2017 18:00:00 (GMT)South Uist Range, Groot Brittannië (3023): temperatuur -20cm & temperatuur -100cm: 09.12.2017 18:00:00 - 15.12.2017 18:00:00 (GMT)South Uist Range, Groot Brittannië (3023): windsnelheid & windstoten: 09.12.2017 18:00:00 - 15.12.2017 18:00:00 (GMT)South Uist Range, Groot Brittannië (3023): windrichting: 09.12.2017 18:00:00 - 15.12.2017 18:00:00 (GMT)South Uist Range, Groot Brittannië (3023): luchtdruk: 09.12.2017 18:00:00 - 15.12.2017 18:00:00 (GMT)South Uist Range, Groot Brittannië (3023): zicht: 09.12.2017 18:00:00 - 15.12.2017 18:00:00 (GMT)South Uist Range, Groot Brittannië (3023): neerslag: 09.12.2017 18:00:00 - 15.12.2017 18:00:00 (GMT)
Datum & Tijd tt [°C] td [°C] tt -20cm [°C] tt -100cm [°C] ff [km/u] ff [kn] fx [km/u] fx [kn] dd ppp [hPa] vv [km] rr [mm]
15.12.2017 18:00:00 - - - - - - - - - - - -
15.12.2017 17:00:00 4,8 0,4 - - 24 13 - - N 1012,7 23 0,0
15.12.2017 16:00:00 4,4 0,8 - - 21 11 - - N 1012,0 24 0,0
15.12.2017 15:00:00 5,1 0,7 - - 26 14 - - NNW 1011,3 23 0,0
15.12.2017 14:00:00 4,5 1,7 - - 21 11 - - N 1011,1 21 0,0
15.12.2017 13:00:00 4,1 2,0 - - 29 16 48 26 N 1010,9 8 0,0
15.12.2017 12:00:00 3,7 2,0 - - 35 19 46 25 N 1010,6 21 0,2
15.12.2017 11:00:00 4,4 2,6 - - 26 14 - - N 1009,9 7 0,2
15.12.2017 10:00:00 4,8 2,2 - - 24 13 - - N 1008,9 20 0,0
15.12.2017 09:00:00 2,7 1,1 5,4 7,7 13 7 - - N 1008,0 22 0,2
15.12.2017 08:00:00 3,4 1,8 - - 21 11 - - NNO 1007,5 23 0,0
15.12.2017 07:00:00 3,8 1,9 - - 15 8 - - N 1006,2 18 0,0
15.12.2017 06:00:00 3,3 1,0 - - 21 11 - - N 1005,1 22 0,0
15.12.2017 05:00:00 3,9 1,4 - - 24 13 - - NNO 1003,8 13 0,0
15.12.2017 04:00:00 4,4 1,2 - - 31 17 54 29 N 1002,7 20 0,0
15.12.2017 03:00:00 4,7 1,9 - - 35 19 54 29 N 1001,4 17 0,0
15.12.2017 02:00:00 5,2 1,1 - - 39 21 57 31 N 1000,0 17 0,0
15.12.2017 01:00:00 5,6 2,2 - - 42 23 57 31 N 998,4 15 0,0
15.12.2017 00:00:00 5,4 3,0 - - 52 28 68 37 NNO 996,5 10 0,2
14.12.2017 23:00:00 5,1 3,3 - - 37 20 72 39 NNO 995,0 15 0,0
14.12.2017 22:00:00 5,2 3,6 - - 61 33 80 43 NNO 992,8 7 0,0
14.12.2017 21:00:00 5,6 3,6 - - 44 24 65 35 NNO 991,1 18 0,0
14.12.2017 20:00:00 5,7 3,4 - - 46 25 70 38 N 988,8 22 0,2
14.12.2017 19:00:00 6,3 3,5 - - 46 25 65 35 N 986,7 19 0,0
14.12.2017 18:00:00 6,3 4,1 - - 39 21 59 32 N 985,2 13 0,0
14.12.2017 17:00:00 6,4 4,2 - - 37 20 54 29 N 983,8 14 0,0
14.12.2017 16:00:00 6,4 3,8 - - 34 18 50 27 N 983,0 16 0,0
14.12.2017 15:00:00 5,4 3,5 - - 39 21 59 32 NNW 982,5 19 1,0
14.12.2017 14:00:00 6,8 4,2 - - 29 16 48 26 NNW 981,9 17 0,2
14.12.2017 13:00:00 4,0 1,7 - - 28 15 50 27 N 981,6 12 0,6
14.12.2017 12:00:00 4,2 2,9 - - 28 15 52 28 NNW 981,3 14 2,0
14.12.2017 11:00:00 4,1 3,0 - - 21 11 - - NW 980,8 17 0,0
14.12.2017 10:00:00 0,2 -0,2 - - 16 9 - - ZZW 980,3 19 0,0
14.12.2017 09:00:00 -0,5 -0,9 5,5 7,7 13 7 - - ZZW 980,1 14 0,0
14.12.2017 08:00:00 0,4 -0,1 - - 0 0 - - N 979,2 16 0,0
14.12.2017 07:00:00 0,3 -0,1 - - 9 5 - - ZW 978,5 15 0,0
14.12.2017 06:00:00 1,1 0,6 - - 15 8 - - ZO 977,9 30 0,4
14.12.2017 05:00:00 0,6 0,4 - - 13 7 - - OZO 978,1 6 1,0
14.12.2017 04:00:00 0,5 0,1 - - 18 10 - - O 978,5 1,9 2,0
14.12.2017 03:00:00 3,4 1,3 - - 9 5 - - Z 978,7 16 0,0
14.12.2017 02:00:00 4,7 1,9 - - 26 14 - - W 978,8 20 0,0
14.12.2017 01:00:00 4,9 1,5 - - 18 10 - - W 979,3 18 0,0
14.12.2017 00:00:00 4,8 1,1 - - 28 15 46 25 W 979,7 19 0,0
13.12.2017 23:00:00 5,0 1,4 - - 37 20 61 33 WNW 979,9 22 0,0
13.12.2017 22:00:00 5,0 2,0 - - 48 26 59 32 WNW 979,9 21 0,2
13.12.2017 21:00:00 5,1 1,3 - - 41 22 54 29 WNW 980,0 22 0,0
13.12.2017 20:00:00 4,7 1,8 - - 35 19 46 25 W 979,5 21 0,0
13.12.2017 19:00:00 4,1 1,7 - - 34 18 52 28 WNW 980,1 21 0,2
13.12.2017 18:00:00 2,9 1,6 - - 42 23 59 32 WNW 980,2 10 0,4
13.12.2017 17:00:00 3,3 1,0 - - 24 13 52 28 NNW 979,9 21 0,2
13.12.2017 16:00:00 3,4 1,0 - - 29 16 - - WNW 980,0 17 0,2
13.12.2017 15:00:00 3,4 1,1 - - 21 11 52 28 WNW 980,2 20 0,2
13.12.2017 14:00:00 3,6 1,3 - - 31 17 67 36 WNW 980,5 17 0,0
13.12.2017 13:00:00 3,5 0,3 - - 24 13 46 25 W 980,8 21 0,2
13.12.2017 12:00:00 5,2 0,4 - - 35 19 - - WNW 981,3 20 0,0
13.12.2017 11:00:00 4,0 0,5 - - 41 22 55 30 WNW 981,6 13 0,0
13.12.2017 10:00:00 5,1 0,1 - - 39 21 55 30 W 981,8 20 0,0
13.12.2017 09:00:00 5,1 1,0 5,7 7,9 39 21 55 30 W 982,0 20 0,0
13.12.2017 08:00:00 5,2 0,9 - - 39 21 61 33 WNW 982,1 21 0,0
13.12.2017 07:00:00 4,9 2,3 - - 35 19 68 37 W 982,4 18 0,0
13.12.2017 06:00:00 5,8 2,3 - - 44 24 63 34 W 982,8 19 0,0
13.12.2017 05:00:00 5,5 4,3 - - 34 18 65 35 WZW 983,4 18 0,6
13.12.2017 04:00:00 5,5 3,9 - - 50 27 68 37 WZW 984,9 8 0,6
13.12.2017 03:00:00 6,7 3,4 - - 34 18 46 25 ZW 986,2 16 0,0
13.12.2017 02:00:00 6,6 3,5 - - 31 17 - - WZW 987,9 16 0,0
13.12.2017 01:00:00 5,7 3,5 - - 37 20 57 31 W 989,2 14 0,0
13.12.2017 00:00:00 5,8 3,6 - - 16 9 - - W 990,2 15 0,0
12.12.2017 23:00:00 6,1 2,0 - - 31 17 48 26 W 990,8 18 0,0
12.12.2017 22:00:00 6,3 0,6 - - 42 23 57 31 W 991,3 21 0,0
12.12.2017 21:00:00 6,7 2,6 - - 37 20 55 30 W 991,3 17 0,0
12.12.2017 20:00:00 6,7 2,5 - - 42 23 61 33 W 991,1 18 0,0
12.12.2017 19:00:00 7,0 3,5 - - 44 24 61 33 WNW 990,8 14 0,0
12.12.2017 18:00:00 5,9 4,6 - - 22 12 54 29 NNW 990,5 11 3,4
12.12.2017 17:00:00 5,4 4,9 - - 29 16 59 32 ZZW 990,1 4,2 1,6
12.12.2017 16:00:00 5,1 4,4 - - 44 24 59 32 Z 990,7 5 1,2
12.12.2017 15:00:00 5,4 4,5 - - 41 22 54 29 ZZW 991,6 5 1,8
12.12.2017 14:00:00 5,2 4,3 - - 28 15 46 25 Z 992,8 15 1,0
12.12.2017 13:00:00 5,2 4,1 - - 31 17 - - ZZW 994,6 6 -
12.12.2017 12:00:00 5,3 3,6 - - 39 21 52 28 ZW 995,9 16 0,6
12.12.2017 11:00:00 4,5 3,4 - - 24 13 - - Z 997,3 22 0,6
12.12.2017 10:00:00 3,9 2,6 - - 21 11 - - ZZW 998,2 9 0,2
12.12.2017 09:00:00 2,5 1,2 5,7 8,0 18 10 - - Z 998,6 28 0,0
12.12.2017 08:00:00 2,1 1,0 - - 16 9 - - Z 999,3 24 0,0
12.12.2017 07:00:00 1,4 0,2 - - 13 7 - - ZZO 1000,0 24 0,0
12.12.2017 06:00:00 2,2 1,0 - - 2 1 - - NW 1000,4 24 0,0
12.12.2017 05:00:00 1,6 0,4 - - 15 8 - - Z 1000,9 27 0,0
12.12.2017 04:00:00 1,4 0,2 - - 15 8 - - Z 1001,2 27 0,0
12.12.2017 03:00:00 1,7 0,4 - - 13 7 - - Z 1001,4 26 0,0
12.12.2017 02:00:00 1,4 0,5 - - 13 7 - - W 1001,8 23 0,0
12.12.2017 01:00:00 1,7 1,1 - - 5 3 - - ZZO 1001,9 26 0,0
12.12.2017 00:00:00 1,2 0,3 - - 8 4 - - NNW 1002,0 19 0,0
11.12.2017 23:00:00 1,2 0,3 - - 4 2 - - ZO 1001,5 17 0,0
11.12.2017 22:00:00 1,8 0,7 - - 5 3 - - N 1000,9 19 0,0
11.12.2017 21:00:00 2,3 0,9 - - 9 5 - - NO 1000,8 22 0,0
11.12.2017 20:00:00 2,8 1,1 - - 11 6 - - ONO 1000,9 24 0,0
11.12.2017 19:00:00 2,4 1,6 - - 4 2 - - OZO 1000,6 22 0,0
11.12.2017 18:00:00 2,4 1,5 - - 8 4 - - N 999,9 24 0,0
11.12.2017 17:00:00 2,6 1,5 - - 9 5 - - N 998,2 20 0,0
11.12.2017 16:00:00 2,6 1,5 - - 13 7 - - N 997,9 23 0,0
11.12.2017 15:00:00 4,2 2,4 - - 16 9 - - N 996,9 20 0,0
11.12.2017 14:00:00 4,3 2,0 - - 22 12 - - NNO 996,1 29 0,0
11.12.2017 13:00:00 3,7 2,4 - - 18 10 - - N 995,3 25 0,2
11.12.2017 12:00:00 3,6 1,9 - - 22 12 54 29 NNO 994,9 26 0,4
11.12.2017 11:00:00 5,7 3,4 - - 26 14 54 29 N 994,0 17 0,0
11.12.2017 10:00:00 4,6 2,0 - - 22 12 - - N 993,0 20 0,2
11.12.2017 09:00:00 4,9 2,1 5,7 8,2 16 9 46 25 N 992,5 20 0,0
11.12.2017 08:00:00 4,3 1,0 - - 34 18 50 27 N 991,8 25 0,0
11.12.2017 07:00:00 4,7 2,6 - - 21 11 50 27 N 991,1 27 0,0
11.12.2017 06:00:00 3,3 2,4 - - 29 16 50 27 N 990,2 18 0,4
11.12.2017 05:00:00 3,7 2,6 - - 21 11 46 25 N 989,4 8 0,8
11.12.2017 04:00:00 3,3 2,3 - - 16 9 - - N 988,7 29 0,2
11.12.2017 03:00:00 3,4 2,0 - - 22 12 - - N 987,6 26 0,0
11.12.2017 02:00:00 3,2 2,1 - - 24 13 - - N 986,8 25 0,2
11.12.2017 01:00:00 3,5 2,1 - - 29 16 - - N 986,1 14 0,0
11.12.2017 00:00:00 2,7 1,2 - - 15 8 - - N 985,2 23 0,2
10.12.2017 23:00:00 2,2 0,9 - - 11 6 - - NO 984,7 30 0,0
10.12.2017 22:00:00 1,9 0,7 - - 16 9 - - NNO 984,0 24 0,0
10.12.2017 21:00:00 3,6 1,9 - - 13 7 - - NW 983,5 22 0,6
10.12.2017 20:00:00 4,3 2,3 - - 22 12 - - NW 983,5 20 0,0
10.12.2017 19:00:00 3,1 1,6 - - 18 10 - - NNW 983,3 25 0,0
10.12.2017 18:00:00 1,5 0,9 - - 8 4 - - N 983,3 25 0,0
10.12.2017 17:00:00 0,8 0,0 - - 13 7 - - NNO 983,3 25 0,0
10.12.2017 16:00:00 1,7 0,9 - - 15 8 - - N 982,9 25 0,0
10.12.2017 15:00:00 1,8 0,6 - - 13 7 - - N 983,1 29 0,0
10.12.2017 14:00:00 2,1 0,5 - - 8 4 - - N 983,4 29 0,0
10.12.2017 13:00:00 2,9 1,4 - - 11 6 - - N 984,0 30 0,2
10.12.2017 12:00:00 1,9 1,2 - - 5 3 - - WZW 984,6 22 0,0
10.12.2017 11:00:00 0,0 -0,5 - - 11 6 - - Z 985,2 20 0,0
10.12.2017 10:00:00 -1,0 -1,5 - - 4 2 - - N 985,8 18 0,0
10.12.2017 09:00:00 -0,5 -1,0 6,2 8,2 2 1 - - N 986,6 15 0,0
10.12.2017 08:00:00 0,0 -0,7 - - 8 4 - - N 987,4 5 0,0
10.12.2017 07:00:00 -2,4 -3,0 - - 8 4 - - NNW 988,2 26 0,0
10.12.2017 06:00:00 -2,0 -2,5 - - 2 1 - - O 989,2 6 0,0
10.12.2017 05:00:00 -1,5 -2,1 - - 4 2 - - OZO 990,4 23 0,0
10.12.2017 04:00:00 -1,1 -1,9 - - 8 4 - - NO 992,1 25 0,0
10.12.2017 03:00:00 -1,0 -2,5 - - 9 5 - - NNO 993,7 25 0,0
10.12.2017 02:00:00 -0,5 -2,1 - - 5 3 - - OZO 995,2 24 0,0
10.12.2017 01:00:00 1,1 -0,8 - - 11 6 - - ONO 996,6 23 0,0
10.12.2017 00:00:00 1,4 -2,6 - - 2 1 - - O 997,8 23 0,0
09.12.2017 23:00:00 1,9 -1,9 - - 8 4 - - N 999,0 22 0,0
09.12.2017 22:00:00 2,1 -1,6 - - 9 5 - - NO 1000,6 21 0,0
09.12.2017 21:00:00 2,5 -1,7 - - 13 7 - - N 1001,9 23 0,0
09.12.2017 20:00:00 3,1 -3,5 - - 13 7 - - N 1003,3 26 0,0
09.12.2017 19:00:00 2,2 -1,3 - - 9 5 - - NO 1004,5 22 0,0
09.12.2017 18:00:00 3,5 -1,9 - - 11 6 - - N 1005,6 23 0,0

tt = temperatuur
td = dauwpunt
tt -20cm = temperatuur -20cm
tt -100cm = temperatuur -100cm
ff = windsnelheid
fx = windstoten
dd = windrichting
ppp = luchtdruk
vv = zicht
rr = neerslag

Weerstations in de omgeving